This is the latest recevied weather packets stored in our database for station/object WX5KDM. If no packets are shown the sender has not sent any weather packets the latest 10 day(s).
| Time | Temp. | Humidity | Pressure | Rain* | Wind** | Luminosity | Snow |
|---|---|---|---|---|---|---|---|
| 1788353597 | 26.67° C | 83% | 1019.6 hPa | 0 mm | - | - | - |
| 1788353293 | 26.67° C | 82% | 1019.6 hPa | 0 mm | - | - | - |
| 1788352989 | 26.11° C | 82% | 1019.6 hPa | 0 mm | - | - | - |
| 1788352683 | 25.56° C | 86% | 1019.6 hPa | 0 mm | - | - | - |
| 1788352380 | 25.56° C | 85% | 1019.5 hPa | 0 mm | - | - | - |
| 1788352078 | 25.56° C | 85% | 1019.5 hPa | 0 mm | - | - | - |
| 1788351788 | 25° C | 88% | 1019.4 hPa | 0 mm | - | - | - |
| 1788351474 | 23.89° C | 92% | 1019.5 hPa | 0 mm | - | - | - |
| 1788351169 | 23.33° C | 94% | 1019.5 hPa | 0 mm | - | - | - |
| 1788350864 | 22.78° C | 97% | 1019.3 hPa | 0 mm | - | - | - |
| 1788350561 | 22.22° C | 97% | 1019.4 hPa | 0 mm | - | - | - |
| 1788350256 | 22.22° C | 97% | 1019.3 hPa | 0 mm | - | - | - |
| 1788349952 | 22.22° C | 97% | 1019.2 hPa | 0 mm | - | - | - |
| 1788349648 | 22.22° C | 97% | 1019.2 hPa | 0 mm | - | - | - |
| 1788349343 | 22.22° C | 97% | 1019.2 hPa | 0 mm | - | - | - |
| 1788349038 | 22.22° C | 97% | 1019 hPa | 0 mm | - | - | - |
| 1788348733 | 22.22° C | 97% | 1018.9 hPa | 0 mm | - | - | - |
| 1788348427 | 21.67° C | 98% | 1019 hPa | 0 mm | - | - | - |
| 1788348125 | 21.67° C | 97% | 1018.9 hPa | 0 mm | - | - | - |
| 1788347819 | 21.67° C | 97% | 1019 hPa | 0 mm | - | - | - |
| 1788347515 | 22.22° C | 97% | 1019 hPa | 0 mm | - | - | - |
| 1788347211 | 22.22° C | 97% | 1018.6 hPa | 0 mm | - | - | - |
| 1788346907 | 22.22° C | 97% | 1018.6 hPa | 0 mm | - | - | - |
| 1788346606 | 22.22° C | 97% | 1018.5 hPa | 0 mm | - | - | - |
| 1788346302 | 22.22° C | 97% | 1018.6 hPa | 0 mm | - | - | - |
* Rain latest hour (hover to see other rain measurements)
** Current wind speed in m/s (hover to see current wind gust speed)